Temp
38 37 36 38 39 37 38 38 37 37 40 39 39 38 36 38 40 37 28 22 26 28 36 36 35 33 30 26 27 27 26 26 26 26 26 26 26 27 27 26 26 27 26 25
37 36 38 40 40 38 39 39 40 39 40 39 39 39 40 40 40 40 31 25 24 27 31 36 35 35 33 28 25 25 26 26 26 26 26 27 27 26 27 26 26 25 23 23
36 38 39 39 39 38 39 39 39 36 36 40 39 39 39 40 40 40 40 32 28 30 37 36 35 34 33 32 30 28 27 27 26 27 26 26 26 26 25 26 25 24 24 23
37 39 39 39 39 36 37 40 40 39 39 37 39 35 37 30 28 37 39 40 39 38 38 38 36 35 34 32 30 29 28 27 26 26 26 26 26 26 27 27 27 25 25 24
37 38 39 39 39 38 39 39 39 39 39 39 39 37 38 35 29 30 38 39 40 40 39 38 35 35 34 32 30 28 27 27 26 26 26 26 25 26 27 27 27 27 26 25
38 41 40 39 41 41 41 37 39 39 39 37 40 38 36 34 28 27 36 40 40 40 39 39 37 36 33 32 30 28 27 26 26 26 25 25 25 25 26 26 26 27 28 27
37 38 40 41 39 40 40 39 37 36 37 35 36 33 37 38 38 40 40 40 40 40 39 38 37 36 33 31 30 29 26 26 26 26 26 26 25 26 25 26 27 26 27 26
36 36 38 40 39 39 39 39 37 35 28 29 35 31 34 40 41 41 41 40 40 39 39 38 36 34 33 31 30 29 27 26 26 26 26 25 25 26 26 25 25 25 26 26
37 37 40 40 40 40 38 38 40 38 33 34 37 38 38 40 40 40 40 39 39 39 38 37 36 34 33 32 30 29 27 26 26 26 26 25 25 25 25 25 25 25 25 25
38 37 39 40 40 40 39 39 38 38 32 32 36 37 35 38 39 40 39 39 39 38 38 37 37 35 33 32 30 29 27 27 27 26 25 25 25 25 25 26 25 25 24 24
39 38 38 40 39 38 39 38 36 39 38 37 37 36 36 33 37 39 40 39 39 38 38 37 36 35 33 32 30 29 28 28 27 27 26 26 26 26 26 26 26 25 25 24
38 38 37 39 41 41 40 39 39 38 36 39 39 35 38 37 39 40 40 39 39 38 38 37 36 34 33 31 30 29 29 29 28 27 26 26 26 26 27 27 26 26 25 24
38 37 36 37 39 40 39 40 41 41 41 38 37 35 29 33 33 37 39 39 36 37 37 36 34 33 32 31 30 30 29 28 27 26 27 27 26 26 27 26 26 25 24 23
37 38 37 35 29 37 38 39 40 40 39 36 34 31 28 30 30 32 39 39 38 37 35 34 33 32 31 30 29 28 29 28 27 27 27 27 26 26 26 25 24 24 23 23
37 36 37 37 34 37 39 39 40 39 39 37 34 31 27 25 26 31 38 39 38 37 35 33 33 31 30 29 28 28 28 28 27 27 26 26 26 25 25 24 23 23 22 22
38 36 37 36 37 37 38 40 39 38 39 38 37 29 29 27 28 27 38 38 37 35 35 33 32 30 30 29 28 28 28 27 27 26 26 26 25 25 24 23 22 22 22 22
37 36 36 35 35 35 35 38 38 37 35 38 37 34 29 30 27 30 37 37 37 35 33 32 32 31 30 28 28 27 27 26 26 26 25 25 25 24 23 22 22 22 21 21
36 36 37 36 31 31 38 40 40 37 34 38 40 36 35 24 23 37 38 37 36 35 32 31 30 31 30 29 29 28 27 26 25 25 25 25 24 23 22 22 21 21 20 20
39 37 35 35 35 35 37 39 39 38 37 41 40 40 37 37 36 36 37 37 35 32 29 30 31 30 30 29 28 27 25 22 24 24 23 23 22 22 21 21 20 20 19 19
39 38 37 36 35 35 37 38 39 38 34 40 40 39 37 36 35 33 33 30 29 29 28 29 31 28 28 26 25 23 21 21 21 20 21 21 21 20 20 20 19 18 18 19
37 37 36 36 35 34 25 28 38 33 34 38 39 38 37 33 34 31 30 30 29 28 29 29 28 26 25 24 22 21 20 20 20 20 21 20 19 19 19 18 18 18 18 18
35 36 36 37 35 31 31 34 36 31 35 37 37 34 33 31 30 29 29 28 27 27 27 26 24 24 23 22 21 20 20 20 20 20 20 19 19 18 18 18 18 19 19 19
33 32 31 28 27 23 25 27 32 36 35 36 34 33 32 31 30 29 27 27 27 26 25 24 24 23 22 21 20 19 18 19 19 19 19 19 18 18 18 18 19 19 18 17
28 27 28 27 23 23 26 28 34 36 36 36 34 33 32 30 30 28 27 27 27 26 25 24 22 21 20 19 19 18 18 19 19 19 19 19 19 19 19 19 18 18 17 16
31 32 33 29 24 25 26 27 35 36 36 36 34 33 32 31 30 29 28 27 27 26 25 24 22 21 20 19 19 18 18 19 19 19 19 19 20 20 20 19 18 18 16 16
32 29 30 25 28 28 31 34 36 36 36 36 34 33 33 32 31 30 28 27 26 25 24 23 22 21 20 19 18 18 18 18 19 20 20 19 20 20 19 19 18 17 17 16
Height
735 752 758 743 727 741 743 749 755 741 718 730 733 734 733 720 719 729 746 764 767 755 737 744 755 759 765 772 775 782 788 793 797 798 801 803 802 801 802 802 803 805 805 806
744 755 732 722 720 739 737 741 738 730 722 730 731 731 718 714 719 720 738 758 759 744 741 740 751 757 763 770 774 781 786 789 792 796 799 800 799 800 799 803 803 804 805 805
748 734 721 724 728 741 734 736 739 755 744 722 730 739 730 718 717 717 714 729 733 729 728 736 748 753 760 766 771 777 782 786 791 795 798 797 798 801 801 803 803 804 804 804
735 717 721 728 731 741 748 718 725 734 743 761 726 776 745 756 768 733 720 715 714 716 723 730 740 750 757 764 771 777 781 786 790 795 797 799 801 802 801 802 802 804 802 801
737 726 725 730 724 721 731 721 730 728 736 738 738 759 741 748 776 755 724 717 713 712 719 729 736 745 753 762 772 779 783 786 789 793 796 799 800 802 801 802 801 800 800 798
720 699 712 715 705 704 706 738 729 728 733 761 726 745 754 758 765 761 728 712 712 709 716 724 732 742 752 762 770 778 783 787 790 793 795 799 802 803 802 802 802 801 799 797
727 720 703 701 718 707 715 730 764 772 764 781 749 770 743 724 717 710 713 709 710 711 718 727 735 744 753 762 769 777 782 787 789 792 793 796 799 801 801 801 801 800 800 798
747 754 718 701 717 726 723 726 754 786 828 813 766 791 761 706 698 700 698 703 709 714 720 728 739 748 755 762 769 775 782 786 790 792 794 796 799 800 802 802 801 802 800 800
733 737 701 699 701 708 726 737 709 738 776 789 755 739 721 703 706 706 703 704 713 717 722 730 739 748 755 762 769 775 781 786 789 792 794 797 799 801 801 802 802 803 802 802
710 734 700 698 697 700 713 709 740 733 793 801 756 749 755 728 722 711 710 712 713 717 725 730 737 745 754 762 768 773 780 785 788 791 794 797 799 800 801 802 803 803 803 803
705 713 712 695 712 719 719 726 735 723 730 754 760 754 722 732 715 713 709 710 714 720 726 730 738 747 755 761 768 774 779 783 787 790 794 795 798 800 802 803 803 803 803 802
702 710 725 709 684 686 694 710 716 734 750 723 728 758 716 718 704 700 704 709 710 717 724 731 740 749 757 763 769 773 776 780 785 789 793 795 796 798 801 802 802 802 801 802
700 720 739 725 703 689 709 699 695 696 697 724 741 758 736 734 726 708 704 707 708 717 725 733 743 751 758 764 769 772 776 781 785 789 792 795 797 798 799 799 800 800 800 799
693 709 719 738 766 716 715 704 694 699 722 734 748 767 764 762 745 728 703 708 712 718 725 735 744 753 759 765 770 773 777 780 784 788 790 793 796 798 798 798 799 800 800 798
698 721 708 709 726 710 696 697 697 708 702 729 738 753 769 754 757 726 710 707 712 719 726 735 742 750 759 765 770 774 776 778 781 787 789 791 794 796 797 798 798 799 798 797
691 717 708 718 705 708 702 688 694 703 702 705 712 765 753 749 730 743 716 712 715 721 728 736 742 749 757 764 769 772 774 778 780 783 786 790 793 795 795 797 797 796 797 796
698 705 714 729 716 726 732 701 700 707 708 705 716 717 731 743 757 750 721 717 716 721 730 736 742 748 755 761 766 770 773 778 783 786 787 789 792 794 794 794 794 794 795 794
696 701 703 719 745 773 700 670 675 698 709 695 684 701 711 751 745 711 708 715 713 719 731 737 741 749 754 758 761 767 776 787 797 803 798 792 793 794 795 795 794 793 793 792
669 691 712 721 719 712 698 683 685 698 707 675 685 685 695 704 710 717 709 705 712 723 736 741 744 749 755 757 762 771 782 800 798 803 803 797 793 796 796 794 794 795 794 793
662 671 697 707 722 729 698 681 663 672 728 684 677 685 692 698 716 724 710 719 728 734 741 743 746 754 760 765 772 777 785 785 791 795 800 795 793 794 798 796 795 794 793 792
683 683 701 699 716 714 714 706 670 730 728 682 678 685 691 710 710 719 723 728 734 741 745 747 753 760 767 771 775 782 784 786 787 795 797 792 796 797 797 795 797 795 794 791
693 695 695 690 705 741 706 704 702 704 689 691 686 696 705 712 720 726 731 737 744 748 753 756 762 768 773 777 779 782 784 788 789 790 788 795 799 796 796 796 798 795 793 792
706 700 710 726 737 734 718 723 691 680 702 698 697 701 704 713 723 730 739 743 747 754 760 766 770 775 779 781 783 784 787 789 789 790 794 797 797 797 797 796 797 795 794 795
711 697 716 727 738 718 711 714 703 692 692 694 697 705 709 717 725 733 740 744 749 757 762 768 776 780 783 786 787 788 789 788 790 793 795 796 797 797 797 796 796 796 796 797
691 696 697 718 727 706 705 706 692 700 693 686 697 707 716 723 727 733 739 745 751 758 763 768 774 780 784 786 788 789 789 791 792 794 796 797 797 796 796 796 796 795 796 798
702 711 717 735 692 698 695 690 686 689 690 690 698 708 717 724 730 733 739 746 751 758 765 770 775 779 784 788 789 791 792 792 793 795 795 796 795 795 795 796 794 795 797 797
Wind_Speed
18 15 17 21 20 9 16 14 21 18 7 3 11 9 19 18 3 16 18 19 13 22 10 20 16 23 26 26 25 25 22 18 14 14 12 12 17 18 14 7 9 13 14 11
18 19 21 22 19 5 17 12 9 8 6 7 9 6 12 9 6 6 25 27 19 17 15 15 15 15 16 30 31 27 24 17 15 10 11 12 16 16 11 6 4 4 5 5
20 21 20 21 17 16 14 14 4 8 14 9 10 11 5 1 1 7 7 26 18 20 14 16 16 17 16 15 18 19 21 16 16 13 11 8 4 5 1 4 6 4 5 7
20 22 21 19 22 9 20 16 5 11 10 10 8 10 14 15 11 16 8 8 16 17 13 16 17 18 18 17 16 16 15 16 14 12 6 9 8 7 10 8 5 5 10 7
20 21 22 17 22 27 9 5 9 17 10 16 14 9 6 13 6 21 10 9 9 15 14 13 13 19 21 20 16 14 15 14 14 13 8 6 7 9 8 8 3 10 11 12
21 17 16 22 21 19 14 16 15 13 13 13 16 12 10 10 18 29 20 12 9 10 17 11 22 20 25 20 19 16 16 14 13 12 9 4 4 5 7 7 6 12 10 10
16 19 18 22 17 13 17 16 9 12 12 4 15 9 7 17 17 7 11 9 11 7 13 11 12 13 22 20 18 16 16 14 13 11 8 6 4 2 3 3 9 13 12 16
15 14 22 19 18 19 22 15 13 12 5 12 6 6 5 12 10 7 8 13 12 9 13 13 12 14 14 19 18 17 16 14 11 9 8 6 4 4 4 4 7 9 11 14
15 16 20 15 17 22 9 14 19 13 3 10 15 11 17 12 9 7 10 17 13 11 11 15 15 16 15 17 18 18 15 13 11 11 8 7 4 2 6 6 8 11 12 11
21 14 16 19 19 19 17 17 11 12 10 6 15 7 9 8 6 4 11 15 15 14 11 12 11 18 17 17 16 16 15 13 12 13 9 8 5 1 1 3 4 5 6 8
21 19 13 19 17 19 16 13 6 18 13 6 5 9 5 3 5 9 8 13 16 15 11 13 11 15 16 16 16 15 15 14 14 12 10 10 5 3 1 2 3 3 6 9
20 14 15 17 22 20 17 20 23 15 12 12 8 9 13 3 5 9 10 10 18 16 13 12 14 16 15 14 15 17 19 17 12 14 10 7 6 4 4 1 2 4 5 8
14 17 15 15 15 18 18 21 22 17 17 9 4 6 11 21 22 14 8 12 13 15 14 13 12 12 15 14 13 13 14 12 17 12 11 9 7 3 1 2 4 8 9 12
13 18 20 9 14 15 19 23 18 18 12 8 7 10 3 11 18 16 9 11 16 13 16 14 12 10 12 15 12 14 13 14 15 13 13 11 5 2 6 9 10 11 14 14
16 20 21 8 20 23 21 23 18 9 16 6 10 9 7 9 10 17 10 11 10 13 17 15 14 12 14 16 14 13 12 17 17 11 13 10 5 2 5 7 10 13 13 14
18 18 19 10 6 15 19 12 6 8 18 10 7 20 15 13 25 17 9 7 8 13 13 13 13 14 14 16 14 13 15 16 16 12 9 7 5 3 5 8 12 14 13 13
18 16 16 11 2 11 20 10 11 2 13 10 4 14 19 9 16 25 9 8 9 12 16 13 12 11 14 19 15 15 15 13 12 10 9 7 3 4 6 9 11 9 11 14
17 17 13 14 19 24 15 13 18 18 14 27 4 19 23 29 37 9 10 9 11 12 14 11 11 11 20 20 17 17 15 11 4 3 3 1 4 8 9 8 9 12 14 15
20 16 13 13 13 9 18 16 4 5 9 6 2 7 20 17 15 10 10 9 12 15 11 12 14 10 9 13 15 17 21 22 6 5 6 6 10 11 11 10 12 15 17 17
17 18 13 13 15 13 5 19 7 16 4 8 11 12 16 7 5 9 18 19 16 17 12 12 17 18 15 11 15 25 23 27 18 13 10 6 9 10 12 11 13 14 15 15
15 15 16 15 6 2 1 22 3 6 5 7 11 10 11 10 11 15 15 15 17 16 13 15 16 18 15 12 16 21 20 14 10 9 2 8 8 8 10 12 12 12 11 12
11 10 11 16 13 9 8 25 3 6 5 3 13 16 19 20 17 15 14 14 13 13 12 17 19 15 15 12 15 16 17 12 10 8 8 5 5 6 9 8 7 11 10 16
1 10 5 6 3 9 12 17 10 22 13 4 13 13 17 18 17 16 14 14 14 17 16 15 15 13 12 11 13 14 10 9 9 8 4 3 4 6 6 7 7 12 18 18
6 7 6 5 4 5 9 9 8 9 8 10 14 12 14 17 17 15 14 13 13 17 17 18 13 12 13 12 13 12 9 9 7 6 4 3 4 4 5 8 10 12 14 15
6 6 0 8 8 7 12 16 7 5 4 13 16 15 14 14 15 15 13 13 14 14 15 15 15 15 14 12 12 9 9 6 7 6 5 4 4 4 5 6 4 7 8 10
3 12 8 5 16 16 13 13 5 5 4 11 16 17 16 13 13 13 12 14 14 16 16 15 16 16 14 12 10 9 7 7 5 4 5 5 5 6 7 7 3 3 3 3
Wind_Direction
218 229 234 235 240 109 262 199 206 232 90 251 285 155 172 220 197 140 141 104 357 301 183 164 182 166 166 167 179 194 201 198 193 204 196 214 223 225 237 253 252 278 294 273
229 221 234 241 251 9 241 258 262 48 338 245 262 240 207 158 199 226 161 152 182 215 241 144 181 189 178 160 171 184 189 202 197 203 223 238 239 222 240 220 283 326 325 318
225 227 229 241 235 233 252 257 114 132 244 248 260 262 298 315 13 220 230 160 174 188 161 162 175 189 179 166 168 178 187 193 193 216 216 238 248 229 261 231 268 255 293 297
226 242 221 230 250 48 274 232 356 205 241 257 198 260 237 101 217 266 210 194 185 149 159 184 165 179 171 160 163 175 181 173 177 200 213 227 235 245 231 240 251 254 279 275
231 229 245 214 238 188 234 45 246 284 259 260 207 249 157 129 31 329 260 198 227 148 158 141 160 168 159 149 153 155 174 176 183 190 216 223 250 264 261 285 14 291 260 256
240 229 232 252 243 241 221 181 238 255 252 256 246 205 172 166 167 214 236 198 195 158 142 160 139 143 134 148 151 155 164 173 182 187 190 218 263 278 325 352 314 312 341 336
229 247 240 236 248 235 236 251 239 238 230 58 39 27 278 165 195 173 159 180 153 143 123 117 112 114 131 145 151 153 156 167 174 172 174 185 196 231 258 265 340 348 348 16
218 215 242 218 230 231 225 230 245 240 65 307 132 207 247 182 132 150 151 148 147 140 127 134 124 123 143 148 158 154 156 156 164 168 160 160 167 218 27 53 15 337 8 7
209 229 212 223 224 236 259 261 254 263 206 254 252 256 232 136 135 155 157 143 148 149 125 133 145 146 159 155 159 153 159 163 167 163 151 131 144 19 37 29 6 21 18 0
256 261 206 191 216 231 212 248 252 272 173 222 232 132 132 133 164 183 159 152 150 136 147 138 149 148 151 160 159 157 159 169 170 146 148 153 152 91 57 62 40 22 19 355
251 262 252 205 201 219 223 233 266 260 271 291 251 118 83 86 324 160 169 166 154 142 161 144 133 126 144 145 152 152 167 163 166 141 164 146 153 118 238 143 101 53 23 351
223 253 255 248 196 212 235 218 214 240 217 255 277 148 39 329 258 160 171 180 156 146 158 137 132 135 131 139 148 166 186 151 143 158 151 162 150 139 127 40 10 19 340 340
208 239 261 246 239 186 225 240 228 243 255 264 317 110 347 353 338 332 158 161 147 146 140 134 125 125 136 147 153 134 130 153 137 148 166 147 149 161 261 55 27 348 352 339
265 232 238 244 232 283 210 237 242 254 255 83 78 119 94 260 329 318 147 158 152 158 141 133 134 133 138 125 128 137 160 152 151 170 174 152 142 51 349 356 350 335 335 335
229 241 247 180 182 268 230 216 226 274 280 90 168 133 115 100 285 275 262 163 169 156 135 141 149 141 137 140 159 162 176 162 161 188 146 152 171 237 320 333 331 323 323 323
215 233 241 257 211 270 304 202 251 245 297 114 150 121 168 199 199 269 217 153 161 132 135 138 139 146 158 157 171 180 182 164 165 181 166 162 194 252 312 326 327 330 320 326
216 223 232 221 165 245 265 212 222 192 317 289 182 158 169 170 305 260 161 168 154 139 144 158 147 151 155 155 172 184 182 178 176 178 177 187 230 292 321 315 327 333 336 337
205 219 228 242 153 233 229 247 183 149 175 254 90 137 156 150 218 148 153 165 156 144 137 147 133 163 171 175 177 175 148 138 133 245 243 251 331 346 348 353 358 3 354 348
188 210 222 238 231 194 263 217 183 254 233 118 214 137 120 121 120 104 120 116 115 115 118 137 142 150 112 112 130 120 108 75 2 340 338 17 27 11 1 5 0 348 349 346
215 195 217 224 251 235 250 336 16 134 200 281 58 77 132 161 168 104 87 89 98 110 124 148 133 112 115 118 102 108 115 107 87 43 312 15 27 14 343 14 9 354 351 343
228 189 206 228 212 96 117 293 37 141 29 45 68 73 62 70 102 107 102 105 105 111 125 118 114 97 92 98 101 108 105 97 115 147 96 39 11 347 22 9 355 342 332 327
236 209 209 217 208 125 32 242 200 154 346 83 89 98 103 109 113 118 117 114 119 115 119 93 96 100 99 103 106 98 89 98 98 89 62 23 5 26 9 359 337 333 4 18
149 1 90 32 4 320 336 318 329 136 161 76 100 115 118 122 124 124 121 128 130 122 115 116 117 117 110 110 109 105 101 104 95 83 79 57 57 34 10 331 25 31 41 24
338 359 102 160 276 23 339 298 286 342 109 118 110 116 123 126 129 128 134 139 134 142 137 129 137 126 117 113 105 102 101 88 89 96 90 55 104 60 34 36 42 43 45 24
22 309 219 89 199 141 232 242 237 240 180 122 121 129 124 134 137 142 147 140 147 151 143 145 138 136 126 118 109 103 93 112 113 100 105 26 113 58 34 50 64 63 63 40
325 3 3 325 183 195 173 203 173 197 160 141 143 138 148 151 148 146 146 149 140 141 141 141 136 134 133 127 113 107 105 96 104 117 86 60 21 36 30 13 83 106 69 48